Location: D�rnast
(49.6426°N, 11.9755°E)
Time: 04:40:34
(UTC+00:00)

ISS - Pass Details

Date: 04 December 2021
Orbit: 413 x 422 km, 51.6° (Epoch: 29 January)

Event Time Altitude Azimuth Distance (km) Brightness Sun altitude
Rises 18:25:02 0° 283° (WNW) 2,383 1.2 -30.0°
Reaches altitude 10° 18:27:45 10° 260° (W) 1,510 -0.1 -30.5°
Enters shadow 18:28:29 13° 249° (WSW) 1,347 -0.5 -30.6°
